sat.trackr.live / text

‹ back to catalog

VINDLER 2.2

NORAD 68484 · 2026-067BW

PAYLOAD ACTIVE UNKNOWN

§ Identity

Operator
Country
US
Launch date
2026-03-30
Launch site
AFWTR
Launch vehicle
Mass (kg)
RCS (m²)

External: N2YO · Heavens-Above · Gunter

§ Orbital elements

Epoch: 2026-09-20T04:50:23.417088Z

Period
96.50 min
Inclination
97.7631°
Eccentricity
0.0002837
Mean motion
14.92247186 rev/d
Perigee alt
589.0 km
Apogee alt
592.9 km
Semi-major
6,969.1 km
B*
7.7124e-5
RAAN
220.9512°
Arg perigee
54.1685°
Mean anomaly
305.9797°
Rev number
2,594

§ Raw data

VINDLER 2.21 68484U 26067BW  26263.20165992  .00000731  00000+0  77124-4 0  99992 68484  97.7631 220.9512 0002837  54.1685 305.9797 14.92247186 25949

JSON: /api/v1/satellites/68484 · /tle

For live sub-satellite position, see the globe view (requires WebGL).

§ Visibility from observer

Set your observer location to see the next 7 days of passes ≥ 10°. The values pass through the URL so the page stays shareable.

No JS? Fill the form by hand. The geolocation button needs JavaScript.